La Vélotoise - 07/08/2016

La Velotoise 130 Km (1910 mD+)


Pl Do. Nom - Surname Prénom - Name S-Cat /cat Club - Team TEMPS - Time Km/h /sx
1 109 VERHOEVEN REMI MH 18-29 1 NL 03:44:15 36,4 1
2 96 GANZA LUDOVIC MH 30-39 1 VELO SPORT MONTALBANAIS 03:44:15 36,4 2
3 80 CORBIERE REMI MH 30-39 2 VC ELANCOURT ST QUENTIN EN YVELINES 03:44:17 36,4 3
4 82 LARRIEU GAUTIER MH 18-29 2 SPRINTER CLUB SAINT ANDREEN 03:44:17 36,4 4
5 98 FIACRE NICOLAS MH 40-49 1 NL 03:44:17 36,4 5
6 79 VALERY BENOIT MH 30-39 3 TOULOUSE OLYMPIQUE AEROSPATIALE 03:44:38 36,3 6
7 120 ORTEGA LUDOVIC MH 30-39 4 NL 03:47:02 35,9 7
8 66 COUSTILLERES CHRISTOPHE MH 40-49 2 CASTELMAYRAN VELO CLUB 03:47:02 35,9 8
9 124 DEOBARRO MIKAEL MH 30-39 5 NL 03:47:04 35,9 9
10 51 REP SJOERD MH 30-39 6 CYCLE SPORT GRONINGEN 03:47:08 35,9 10
11 7 COURPET NICOLAS MH 30-39 7 ENTENTE CYCLISTE ST PROJET 03:47:09 35,9 11
12 131 DELPECH SEBASTIEN MH 40-49 3 NL 03:47:09 35,9 12
13 15 POUGET PATRICK MH 50-59 1 ACV AURILLACOIS 03:47:16 35,9 13
14 128 RIVOIRARD GUILLAUME MH 40-49 4 NL 03:48:18 35,7 14
15 97 BARE ANTONY MH 18-29 3 VCA DU BOURGET 03:51:15 35,3 15
16 88 FAURISSON ROLAND MH 65-69 1 NL 03:51:56 35,2 16
17 125 JONCOUX PIERRE MH 30-39 8 NL 03:58:59 34,1 17
18 84 ROUBEYRIE JULIEN MH 30-39 9 VELO CLUB SANSAC ARPAJON 03:59:00 34,1 18
19 64 PLUQUET JEAN-LUC MH 50-59 2 NL 04:00:42 33,9 19
20 58 MICHEL STEPHANE MH 40-49 5 CC BRIVISTE 04:00:58 33,9 20
21 123 PAROLIN FRANCK MH 30-39 10 NL 04:01:25 33,8 21
22 17 STOOVE GILLES MH 30-39 11 VC PAYS DE LA CHATAIGNERAIE 04:01:33 33,8 22
23 103 CORREAS LIBERTO MH 65-69 2 NL 04:01:37 33,8 23
24 29 PINZELLI STEPHANE MH 40-49 6 CYCLO CLUB BOSMIE 04:01:48 33,7 24
25 6 DECROZE FABIEN MH 30-39 12 UC VOIRON 04:01:55 33,7 25
26 12 BOURRIER ALEXANDRE MH 40-49 7 NL 04:02:02 33,7 26
27 90 CORNALI CLEMENT MH 30-39 13 GUIDON BIASSAIS 04:02:05 33,7 27
28 73 DARTHOUX SYLVAIN MH 30-39 14 CYCLO CLUB BOSMIE 04:02:05 33,7 28
29 102 TASSEL ADRIEN MH 18-29 4 NL 04:07:22 33 29
30 74 CAMPAN NICOLAS MH 30-39 15 CAHORS CYCLISME 04:07:28 33 30
31 33 AIMAR PATRICK MH 50-59 3 NL 04:07:35 33 31
32 116 PERRIER FRANCIS MH 50-59 4 NL 04:07:42 32,9 32
33 100 UGUEN TANGUY MH 40-49 8 NL 04:07:49 32,9 33
34 39 DELPY FABIEN MH 30-39 16 NL 04:07:49 32,9 34
35 57 LACOMBE THIERRY MH 50-59 5 CASTELMAYRAN VELO CLUB 04:08:09 32,9 35
36 63 BESSAGUET REMI MH 30-39 17 VELO CLUB NEUILLY 04:09:59 32,6 36
37 14 RENAUDIE DENIS MH 50-59 6 VELO CLUB SULPICIEN 04:10:01 32,6 37
38 89 SERVAES LUC MH 50-59 7 AMICALE CYCLISTE DU GRAND VILLENEUVOIS 47 04:10:02 32,6 38
39 13 LAQUES DAMIEN MH 40-49 9 NL 04:10:07 32,6 39
40 81 CORBIERE BERNARD MH 60-64 1 NL 04:10:08 32,6 40
41 54 GAMBUS MICKAEL MH 30-39 18 GUIDON MACARIEN 04:10:31 32,6 41
42 10 FAUCHER GERARD MH 50-59 8 NL 04:10:36 32,6 42
43 56 RAYNAL OLIVIER MH 40-49 10 NL 04:10:39 32,6 43
44 61 RAMOS CHRISTIAN MH 50-59 9 ARIEGE PYRENNEES TRIATHLON 04:10:40 32,6 44
45 23 WALKER CHRIS MH 40-49 11 NL 04:11:00 32,5 45
46 59 SALINIE FREDERIC MH 30-39 19 ASSOCIATION SPORTIVE ST JUNIEN CYCLOTOUR 04:13:10 32,2 46
47 85 BONNET STEPHANE MH 40-49 12 NL 04:13:21 32,2 47
48 83 VIARGUES PIERRE MH 50-59 10 ENTENTE CYCLISTE LUC PRIMAUBE 04:13:40 32,2 48
49 27 FRAYSSE EDDY MH 40-49 13 NL 04:14:35 32,1 49
50 133 GUIBAL JULIEN MH 18-29 5 NL 04:15:28 31,9 50
51 86 LOSEGO CEDRIC MH 30-39 20 VELO CLUB SERIGNAC 04:15:37 31,9 51
52 32 TERRAUBE JEAN-LUC MH 60-64 2 VELO CLUB SERIGNAC 04:15:37 31,9 52
53 34 RUBIO ANGEL MH 40-49 14 CASTELMAYRAN VELO CLUB 04:15:51 31,9 53
54 95 TELATYNSKI DAVID MH 30-39 21 NL 04:16:56 31,8 54
55 119 GIL LAURENT MH 40-49 15 NL 04:19:56 31,4 55
56 118 AZADES PATRICK MH 40-49 16 NL 04:19:59 31,4 56
57 76 DESCHAMPS DAVID MH 40-49 17 GRETZ TOURNAN SC 04:20:16 31,4 57
58 87 GYTE JOHN MH 50-59 11 DINNINGTON RC 04:20:16 31,4 58
59 25 FLOIRAC FABRICE MH 40-49 18 NL 04:20:21 31,3 59
60 65 SOULIE BERNARD MH 50-59 12 NL 04:20:21 31,3 60
61 70 BONNAMOUR ALEXANDRE MH 40-49 19 NL 04:20:26 31,3 61
62 93 MERIADE LAURENT MH 40-49 20 ENTENTE CYSLISTE LUC PRIMAUBE 04:20:29 31,3 62
63 5 GODARD-MONMARTEAU SABRINA FF 30-39 1 METZ TRIATHLON 04:20:33 31,3 1
64 62 LAPOUYADE GERARD MH 60-64 3 ASPTT PERIGUEUX 04:20:39 31,3 63
65 107 DEJEAN PATRICK MH 40-49 21 NL 04:21:29 31,2 64
66 53 COLLIN BERTRAND MH 40-49 22 NL 04:24:33 30,8 65
67 4 LANDES PATRICE MH 40-49 23 CLUB SCHWALMALA 04:27:27 30,5 66
68 38 DUMANCIC YOHAN MH 30-39 22 VCF 04:28:50 30,4 67
69 71 CONSTANS CLEMENT MH 30-39 23 NL 04:29:17 30,3 68
70 121 FEUILLADE EMMANUEL MH 30-39 24 NL 04:29:46 30,2 69
71 3 GRIFFITHS PETER MH 40-49 24 BRITISH CYCLING CLUB 04:30:30 30,2 70
72 35 HAUDECOEUR ARNAUD MH 18-29 6 BONNAC LOISIRS 04:30:57 30,1 71
73 77 BAUD EDDIE MH 70+ 1 UNION CYCLISTE SARLADAISE 04:30:58 30,1 72
74 110 MESPOULHES REMI MH 18-29 7 NL 04:33:18 29,9 73
75 49 FORESTIER FRANCIS MH 60-64 4 NL 04:33:27 29,8 74
76 112 PILFERT CEDRIC MH 30-39 25 NL 04:33:36 29,8 75
77 24 TEULADE JACQUES MH 60-64 5 NL 04:33:37 29,8 76
78 101 BAGREAUX BASTIEN MH 18-29 8 NL 04:34:16 29,8 77
79 94 CANCE ANDRE MH 60-64 6 VELO CLUB RODEZ 04:34:37 29,7 78
80 19 GUITARD PIERRE MH 40-49 25 CYCLELAB JNB SUPERCYCLING CLUB 04:35:19 29,6 79
81 45 MEAUD DOMINIQUE MH 50-59 13 NL 04:35:20 29,6 80
82 132 SOULIE BERNARD MH 50-59 14 NL 04:35:20 29,6 81
83 50 CASILLAS ANTONIO MH 40-49 26 NL 04:35:21 29,6 82
84 16 CROUZET SERGE MH 50-59 15 NL 04:35:26 29,6 83
85 106 NATUREL CLAUDE MH 60-64 7 NL 04:35:27 29,6 84
86 41 LARIVAIN ALEXANDRE MH 40-49 27 NL 04:37:11 29,4 85
87 72 BESOMBE FREDERIC MH 30-39 26 CYCLO CLUB MARNAZ 04:37:14 29,4 86
88 60 BESOMBE ANDRE MH 60-64 8 CLUB VELOCIO GAILLARD 04:37:14 29,4 87
89 111 FALBY JEAN LUC MH 40-49 28 NL 04:39:23 29,2 88
90 92 BOUAT GEORGES MH 40-49 29 NL 04:39:50 29,2 89
91 108 VERRON LUDOVIC MH 30-39 27 NL 04:41:07 29 90
92 113 ROUX ALAIN MH 65-69 3 NL 04:41:18 29 91
93 127 CARTIER EMMANUEL MH 40-49 30 NL 04:41:29 29 92
94 115 LAVAL CLAUDE MH 60-64 9 NL 04:42:48 28,9 93
95 126 VEYROND GILBERT MH 60-64 10 NL 04:44:25 28,7 94
96 42 TOURNIER BRUNO MH 50-59 16 VTT MONTAGRIER SPORTS 04:46:05 28,5 95
97 37 ROBILLART PATRICE MH 60-64 11 CLUB PORT GAZELEC GIRONDIN 04:46:31 28,5 96
98 48 STEFANI FABRICE MH 40-49 31 SAINT PIERRE CYCLO CLUB 04:48:47 28,3 97
99 68 ALBINET ANDRE MH 50-59 17 CYCLO 4 HAUT AGENAIS 04:52:43 27,9 98
100 114 VALIENTE MICHEL MH 60-64 12 NL 04:54:56 27,7 99
101 69 PECHIERAS JEROME MH 40-49 32 NONNAC LOISIRS 04:55:02 27,7 100
102 36 HAUDECOEUR DIDIER MH 50-59 18 BONNAC LOISIRS 04:55:15 27,6 101
103 91 CAVANIE PHILIPPE MH 40-49 33 CYCLO CLUB FIRMI AUBIN CRANSAC 04:55:28 27,6 102
104 104 DIRAT JEAN LOUIS MH 65-69 4 NL 04:58:35 27,3 103
105 122 ORFILA GABRIEL MH 60-64 13 NL 04:58:36 27,3 104
106 46 CHABOURLIN JEAN-CLAUDE MH 70+ 2 ALVA 04:58:54 27,3 105
107 40 JAMOT DENIS MH 40-49 34 AMICALE NOCTURNE CYCLISTE DUN LE PALESTE 04:59:40 27,2 106
108 129 CAZAGNES THIERRY MH 50-59 19 NL 05:03:43 26,9 107
109 99 VERDUGIER MICKAEL MH 18-29 9 NL 05:04:53 26,8 108
110 9 PELISSIER ERIC MH 50-59 20 AS MEUDONNAISE 05:09:45 26,3 109
111 52 GROUT REMY MH 50-59 21 COURS VTT 05:13:16 26 110
112 28 BOIS JEAN-PIERRE MH 60-64 14 NL 05:13:55 26 111
113 31 FERRANT PATRICK MH 60-64 15 NL 05:14:09 26 112
114 2 VERMEULEN CHRISTOPHE MH 50-59 22 ASS CYCLOTOURISME VOVES 05:18:20 25,6 113
115 30 LEVESQUE SYLVAIN MH 40-49 35 NL 05:23:30 25,2 114
116 26 TEULADE MARC MH 18-29 10 TRIATHLON COTE D'AMOUR 05:24:06 25,2 115
117 135 VAN TILBURG DENNES MH 50-59 23 NL 05:30:11 24,7 116
118 117 DUBOIS PATRICK MH 50-59 24 NL 05:31:03 24,6 117
119 20 MARCZYK MATEUSZ MH 40-49 36 NL 05:31:18 24,6 118
120 78 THERET CHRISTIAN MH 40-49 37 NL 05:59:08 22,7 119
121 22 CHARTRAIN GUILLAUME MH 30-39 0 AL LA CHAPELLE ST URSIN 00:00:00 Abd Abd
122 75 GODFRIAUX GABRIEL MH 18-29 0 NL 00:00:00 Abd Abd
123 67 OTTENWELTER JACKY MH 60-64 0 CYCLO CLUB RIVESALTES 03:36:29 Abd Abd
124 130 DELGA DAMIEN MH 30-39 0 NL 04:06:41 Abd Abd
125 18 PENARANDA RENE MH 65-69 0 VCF 04:21:07 Abd Abd